User: anonymous   Login
Location: Unspecified
(0.0000°N, 0.0000°E)
Time: 10:55:59
(UTC+00:00)
Language:

Akebono - Orbit

View from above orbital plane
View from above orbital plane
View from above satellite
View from above satellite

Ground track
Ground track

The orbit data is extracted from the following two-line orbital elements,

1 19822U 89016A   17269.14318613  .00040069  20495-6  77782-3 0  9997
2 19822  75.0361 174.7047 1889576  33.8017 337.0164 11.73233182921065
Epoch (UTC): 26 September 2017 03:26:11
Eccentricity: 0.1889576
inclination: 75.0361°
perigee height: 257 km
apogee height: 3349 km
right ascension of ascending node: 174.7047°
argument of perigee: 33.8017°
revolutions per day: 11.73233182
mean anomaly at epoch: 337.0164°
orbit number at epoch: 92106

The dashed part of the orbit path shows where the satellite is in the earth's shadow,  

DLR